Regional Weather Roundup
Issued by NWS Charleston, WV

Home | Current Version | Previous Version | Graphics & Text | Print | Product List | Glossary On
Versions: 1 2 3 4 5 6 7 8 9 10 11 12 13 14 15 16 17 18 19 20 21 22 23 24 25 26 27 28 29 30 31 32 33 34 35 36 37 38 39 40 41 42 43 44 45 46 47 48 49 50
000
ASUS41 KRLX 251010
RWRRLX
West Virginia Regional Weather Roundup
National Weather Service Charleston WV
600 AM EDT FRI JUL 25 2014

Note: "fair" indicates few or no clouds below 12,000 feet with no
significant weather and/or obstructions to visibility.

WVZ003-251100-
Northern Panhandle of West Virginia

CITY           SKY/WX    TMP DP  RH WIND       PRES   REMARKS
WHEELING       CLEAR     52  50  93 CALM      30.08R
$$

WVZ009-251100-
Northwest West Virginia

CITY           SKY/WX    TMP DP  RH WIND       PRES   REMARKS
PARKERSBURG      N/A     54  52  93 MISG      30.10R
$$

WVZ006-251100-
Western West Virginia

CITY           SKY/WX    TMP DP  RH WIND       PRES   REMARKS
HUNTINGTON     CLEAR     57  56  96 CALM      30.06R
$$

WVZ015-251100-
West Central West Virginia

CITY           SKY/WX    TMP DP  RH WIND       PRES   REMARKS
CHARLESTON     FOG       63  63 100 CALM      30.06R VSB 1
$$

WVZ031-251100-
North Central West Virginia

CITY           SKY/WX    TMP DP  RH WIND       PRES   REMARKS
CLARKSBURG     CLEAR     53  51  93 CALM      30.08R
MORGANTOWN     CLEAR     57  52  83 CALM      30.09R
$$

WVZ035-042-045-251100-
South Central West Virginia

CITY           SKY/WX    TMP DP  RH WIND       PRES   REMARKS
BECKLEY        CLOUDY    58  56  93 CALM      30.10S
BLUEFIELD      CLOUDY    60  56  86 CALM      30.12R
LEWISBURG      PTCLDY    59  57  93 CALM      30.10S FOG
$$

WVZ047-251100-
Northern Mountains of West Virginia

CITY           SKY/WX    TMP DP  RH WIND       PRES   REMARKS
ELKINS         FOG       57  55  93 CALM      30.10F VSB 1
$$

WVZ052-251100-
Eastern Panhandle of West Virginia

CITY           SKY/WX    TMP DP  RH WIND       PRES   REMARKS
MARTINSBURG    CLEAR     57  51  80 CALM      30.06R
PETERSBURG     FOG       52  49  89 CALM      30.09R VSB 1/4
$$


USA.gov is the U.S. government's official web portal to all federal, state and local government web resources and services.